Doha, Qatar

5:54 AM AST on February 22, 2017 (GMT +0300)
Doha International

Weather History for OTBD - November, 2011

Change the Weather History Date:

Monday, November 28, 2011

  Actual Average Record
Temperature  
Mean Temperature 71 °F -  
Max Temperature 74 °F 76 °F 84 °F (2015)
Min Temperature 68 °F 60 °F 62 °F (2002)
Cooling Degree Days 6    
Growing Degree Days 21 (Base 50)    
Moisture  
Dew Point 54 °F    
Average Humidity 56    
Maximum Humidity 68    
Minimum Humidity 39    
Precipitation  
Precipitation 0.00 in 0.02 in - ()
Sea Level Pressure  
Sea Level Pressure 30.04 in    
Wind  
Wind Speed 11 mph ()    
Max Wind Speed 17 mph    
Max Gust Speed -    
Visibility 6.6 miles    
Events Rain    
Averages and records for this station are not official NWS values.
T = Trace of Precipitation, MM = Missing Value Source: Averaged Metar Reports

Daily Weather History Graph

Daily Weather History Graph

Search for Another Location

Airport or City:

Trip Planner

Search our weather history database for the weather conditions in past years. The results will help you decide how hot, cold, wet, or windy it might be!

Date:

Astronomy

Nov. 28, 2011 Rise Set
Actual Time 5:59 AM AST 4:43 PM AST
Civil Twilight 5:34 AM AST 5:07 PM AST
Nautical Twilight 5:06 AM AST 5:36 PM AST
Astronomical Twilight 4:39 AM AST 6:03 PM AST
Moon 8:53 AM AST (11/28) 8:00 PM AST (11/28)
Length of Visible Light 11h 32m
Length of Day
10h 43m
Waxing Crescent, 13% of the Moon is Illuminated
Nov 28
Waxing Crescent
Dec 2
First Quarter
Dec 10
Full
Dec 18
Last Quarter
Dec 24
New

Hourly Weather History & Observations

Time (AST) Temp. Dew Point Humidity Pressure Visibility Wind Dir Wind Speed Gust Speed Precip Events Conditions
12:00 AM 69.8 °F 55.4 °F 60% 30.01 in - NNW 12.7 mph - N/A   Clear
12:30 AM 69.8 °F 51.8 °F 53% 30.04 in - NNW 11.5 mph - N/A   Clear
1:00 AM 69.8 °F 51.8 °F 53% 30.04 in 5.6 mi NNW 10.4 mph - N/A Rain Light Rain
1:30 AM 69.8 °F 53.6 °F 56% 30.04 in 6.2 mi NNW 9.2 mph - N/A   Mostly Cloudy
2:00 AM 69.8 °F 55.4 °F 60% 30.04 in 6.2 mi NNW 12.7 mph - N/A   Mostly Cloudy
2:30 AM 68.0 °F 53.6 °F 60% 30.01 in 6.2 mi NNW 11.5 mph - N/A   Mostly Cloudy
3:00 AM 68.0 °F 51.8 °F 56% 30.01 in 6.2 mi NNW 11.5 mph - N/A   Mostly Cloudy
3:30 AM 68.0 °F 51.8 °F 56% 30.04 in 6.2 mi NNW 11.5 mph - N/A   Mostly Cloudy
4:00 AM 68.0 °F 53.6 °F 60% 30.04 in 6.2 mi NNW 10.4 mph - N/A   Mostly Cloudy
4:30 AM 68.0 °F 53.6 °F 60% 30.04 in 6.2 mi NNW 10.4 mph - N/A   Mostly Cloudy
5:00 AM 68.0 °F 53.6 °F 60% 30.04 in - NNW 12.7 mph - N/A   Clear
5:30 AM 68.0 °F 53.6 °F 60% 30.04 in - NNW 11.5 mph - N/A   Clear
6:00 AM 68.0 °F 51.8 °F 56% 30.06 in - NNW 11.5 mph - N/A   Clear
6:30 AM 68.0 °F 51.8 °F 56% 30.06 in - NNW 11.5 mph - N/A   Clear
7:00 AM 68.0 °F 51.8 °F 56% 30.06 in - NNW 10.4 mph - N/A   Clear
7:30 AM 68.0 °F 51.8 °F 56% 30.06 in - NNW 11.5 mph - N/A   Clear
8:00 AM 69.8 °F 51.8 °F 53% 30.09 in 6.2 mi NNW 13.8 mph - N/A   Scattered Clouds
8:30 AM 71.6 °F 51.8 °F 50% 30.09 in 6.2 mi NNW 12.7 mph - N/A   Scattered Clouds
9:00 AM 71.6 °F 51.8 °F 50% 30.09 in - NNW 11.5 mph - N/A   Clear
9:30 AM 71.6 °F 51.8 °F 50% 30.09 in - North 15.0 mph - N/A   Clear
10:00 AM 73.4 °F 51.8 °F 47% 30.09 in - North 13.8 mph - N/A   Clear
10:30 AM 73.4 °F 53.6 °F 50% 30.06 in - North 16.1 mph - N/A   Clear
11:00 AM 73.4 °F 51.8 °F 47% 30.06 in - North 15.0 mph - N/A   Clear
11:30 AM 75.2 °F 53.6 °F 47% 30.06 in - North 15.0 mph - N/A   Clear
12:00 PM 73.4 °F 53.6 °F 50% 30.04 in - North 13.8 mph - N/A   Clear
12:30 PM 73.4 °F 53.6 °F 50% 30.04 in - NNE 15.0 mph - N/A   Clear
1:00 PM 73.4 °F 53.6 °F 50% 30.01 in - North 15.0 mph - N/A   Clear
1:30 PM 73.4 °F 53.6 °F 50% 30.01 in - NNE 17.3 mph - N/A   Clear
2:00 PM 73.4 °F 57.2 °F 57% 30.01 in - North 16.1 mph - N/A   Clear
2:30 PM 73.4 °F 51.8 °F 47% 30.01 in - North 16.1 mph - N/A   Clear
3:00 PM 73 °F 53 °F 39% 30.01 in 10 mi NNE 16.1 mph - -  
3:00 PM 73.4 °F 53.6 °F 50% 30.01 in - NNE 16.1 mph - N/A   Clear
3:30 PM 73.4 °F 53.6 °F 50% 30.01 in - North 15.0 mph - N/A   Clear
4:00 PM 71.6 °F 55.4 °F 57% 30.01 in - NNE 16.1 mph - N/A   Clear
4:30 PM 71.6 °F 55.4 °F 57% 30.01 in - North 12.7 mph - N/A   Clear
5:00 PM 71.6 °F 55.4 °F 57% 30.01 in - North 13.8 mph - N/A   Clear
5:30 PM 69.8 °F 55.4 °F 60% 30.04 in - North 13.8 mph - N/A   Clear
6:00 PM 69.8 °F 55.4 °F 60% 30.04 in - North 12.7 mph - N/A   Clear
6:30 PM 69.8 °F 59.0 °F 68% 30.04 in - North 13.8 mph - N/A   Clear
7:00 PM 69.8 °F 55.4 °F 60% 30.04 in - North 13.8 mph - N/A   Clear
7:30 PM 69.8 °F 55.4 °F 60% 30.04 in - North 11.5 mph - N/A   Clear
8:00 PM 69.8 °F 55.4 °F 60% 30.04 in - North 11.5 mph - N/A   Clear
8:30 PM 69.8 °F 57.2 °F 64% 30.04 in - North 11.5 mph - N/A   Clear
9:00 PM 70 °F 57 °F 55% 30.06 in 9 mi North 10.4 mph - -   Scattered Clouds
9:00 PM 69.8 °F 57.2 °F 64% 30.04 in - North 10.4 mph - N/A   Clear
9:30 PM 69.8 °F 57.2 °F 64% 30.04 in 6.2 mi North 11.5 mph - N/A   Partly Cloudy
10:00 PM 69.8 °F 57.2 °F 64% 30.04 in 6.2 mi North 10.4 mph - N/A   Partly Cloudy
10:30 PM 68.0 °F 57.2 °F 68% 30.04 in 6.2 mi NNW 8.1 mph - N/A   Partly Cloudy
11:00 PM 69.8 °F 57.2 °F 64% 30.04 in 6.2 mi North 8.1 mph - N/A   Scattered Clouds
11:30 PM 69.8 °F 55.4 °F 60% 30.01 in 6.2 mi NNW 9.2 mph - N/A   Scattered Clouds